Location: Sungai Lasa
(2.4500°N, 113.4500°E)
Time: 15:52:42
(UTC+00:00)

DMSP B5D2-2 - Pass Details

Date: 03 February 2023
Orbit: 788 x 805 km, 98.3° (Epoch: 23 March)

Event Time Altitude Azimuth Distance (km) Brightness Sun altitude
Rises 21:53:24 0° 172° (S) 3,292 7.6 -11.9°
Reaches altitude 10° 21:55:44 10° 173° (S) 2,364 6.8 -11.3°
Maximum altitude 22:00:56 74° 257° (WSW) 829 4.0 -10.1°
Drops below altitude 10° 22:06:10 10° 343° (NNW) 2,367 6.2 -8.8°
Sets 22:08:30 0° 345° (NNW) 3,298 7.0 -8.3°
